STARLINK-2153, 48009

Orbit data source: Space-Track

STARLINK-2153, 48009 is a payload satellite owned by SpaceX/Seattle (US) in LEO that was launched on Wed, 24 Mar 2021 UTC via an FALCON 9 launch vehicle from the Air Force Eastern Test Range (AFETR). Payload-class satellites include a variety of spacecraft equipped with specific instruments for various scientific and technological missions. These include communications satellites like Starlink; space stations such as the ISS; scientific satellites like the Hubble; Earth observation satellites from companies like Planet Labs, Umbra, and HawkEye 360; GPS; miniature CubeSats for education and research; and military/defense satellites.

Loading next visibility...
Identifier
48009, 2021-024AJ
Orbit
LEO
Country
Flag of USUS
Related business
Manufacturer
SpaceX/Seattle
Mission
Operational Commercial Communications
Bus & Motor
STARLINK, Unknown motor
Mass
260 kg wet, ~248 kg dry
Launch date (UTC)
2021-03-24 (5 years ago)
Launch vehicle
FALCON 9
Launch site
Air Force Eastern Test Range (AFETR)
Object type
Payload
Rocket body
Debris
Shape & HBR
Box + 1 Pan, 10.1 m
Radar Cross Section
13.562 m², Large (>1 m²)

Expand to show TLE details & history
Last TLE update: 11 hours ago

TLE from 11 hours ago
0 STARLINK-2153
1 48009U 21024AJ  26130.10512784 -.00000704  00000-0 -10944-4 0  9995
2 48009  53.1626  23.8301 0001328  88.9496 271.1658 15.31680610284309
Epoch: 2026-05-10T02:31Z
TLE epoch observation values (Epoch: 2026-05-10T02:31:23.045Z)
Latitude
0.00002°
Longitude
118.0711°
Altitude
471.68 km
Speed
7.631 km/s
True Right ascension
01h 35m 19s
True Declination
0° 00' 00"
Sunlit
Object was in daylight at epoch
Visualization orbit readout
Latitude
Unknown
Longitude
Unknown
Altitude
Unknown
Speed
Unknown
Apparent Right ascension
Unknown
Apparent Declination
Unknown
Sunlit
N/A
Visualization observer readout
Local Sidereal Time
22:11:39
Azimuth
Unknown
Elevation
Unknown
Doppler factor
Unknown
Orbital elements
Apogee altitude
471.964 km
Perigee altitude
470.144 km
Semi-major axis
6,849.191 km
Eccentricity
0.00013
Inclination
53.1626°
RAAN
23.8301°
Arg. of periapsis
88.9496°
True anomaly
271.15059°
Mean anomaly
271.1658°
Eccentric anomaly
271.15819°
Mean motion
3.82899 °/min
Orbital period
94.02 mins
BSTAR
-0.000010944
Loading maneuver chart data...
Computing Atmospheric mass density...

Documentation

Showing up to 5 results
|